Date String (YYYY-MM-DD hh:mm:ss) UTC,Instrument flags,absolute air pressure of the measurement (hPa),sample flow rate (lpm),inlet stack bypass flow (lpm),air temperature of the measurement (°C),ambient temperature measured by the external sensor (°C),aerosol sample conditioner tube jacket temperature (°C),OPC LED temperature (°C),internal box temperature (°C),relative humidity of the measurement (%),span deviation,mass concentration of particles derived from Lorenz-Mie calculation of OPC scattering (μg/m³),mass concentration of particles derived from Lorenz-Mie calculation of OPC scattering (μg/m³),mass concentration of particles derived from Lorenz-Mie calculation of OPC scattering (μg/m³)
DateTimeUTC,F1_M11,P_M11,Q1_M11,Q2_M11,T1_M11,T2_M11,T3_M11,T4_M11,T5_M11,U1_M11,ZSPAN_M11,X0_M11,X2_M11,X1_M11
2024-03-23 05:00:00,SystemResetWarning,0826.9,5.00,000.00,024.5,023.7,000.0,033.1,026.4,10.6,0000.0,0010.57,0003.90,0001.94
2024-03-23 05:01:00,SystemResetWarning,0827.0,5.00,000.00,024.5,023.7,000.0,033.1,026.4,10.5,0000.0,0010.59,0003.87,0001.96
2024-03-23 05:02:00,SystemResetWarning,0827.0,5.00,000.00,024.5,023.7,000.0,033.1,026.4,10.6,0000.0,0010.78,0003.86,0001.97
2024-03-23 05:03:00,SystemResetWarning,0826.9,5.00,000.00,024.5,023.7,000.0,033.1,026.4,10.8,0000.0,0010.78,0003.83,0001.99
2024-03-23 05:04:00,SystemResetWarning,0826.9,5.00,000.00,024.5,023.7,000.0,033.1,026.4,10.8,0000.0,0010.93,0003.86,0002.00
2024-03-23 05:05:00,SystemResetWarning,0827.0,5.00,000.00,024.5,023.7,000.0,033.1,026.3,10.9,0000.0,0011.06,0003.90,0002.01
2024-03-23 05:06:00,SystemResetWarning,0826.9,5.00,000.00,024.5,023.7,000.0,033.1,026.4,10.8,0000.0,0010.75,0003.97,0002.01
2024-03-23 05:07:00,SystemResetWarning,0826.9,4.99,000.00,024.5,023.7,000.0,033.1,026.3,10.9,0000.0,0010.23,0003.98,0002.01
2024-03-23 05:08:00,SystemResetWarning,0826.9,4.99,000.00,024.5,023.7,000.0,033.1,026.3,10.8,0000.0,0009.89,0004.00,0002.02
2024-03-23 05:09:00,SystemResetWarning,0826.9,5.00,000.00,024.5,023.7,000.0,033.1,026.3,10.7,0000.0,0010.20,0004.02,0002.03
2024-03-23 05:10:00,SystemResetWarning,0826.9,5.00,000.00,024.4,023.7,000.0,033.1,026.3,10.6,0000.0,0010.47,0004.10,0002.03
2024-03-23 05:11:00,SystemResetWarning,0826.9,5.00,000.00,024.4,023.6,000.0,033.1,026.3,10.5,0000.0,0010.48,0004.07,0002.02
2024-03-23 05:12:00,SystemResetWarning,0826.9,5.00,000.00,024.4,023.6,000.0,033.1,026.3,10.5,0000.0,0010.50,0004.04,0002.02
2024-03-23 05:13:00,SystemResetWarning,0826.9,5.01,000.00,024.4,023.6,000.0,033.0,026.3,10.5,0000.0,0010.47,0004.06,0002.02
2024-03-23 05:14:00,SystemResetWarning,0826.9,5.00,000.00,024.4,023.6,000.0,033.0,026.3,10.5,0000.0,0010.33,0004.03,0002.01
2024-03-23 05:15:00,SystemResetWarning,0826.9,5.00,000.00,024.4,023.6,000.0,033.0,026.3,10.6,0000.0,0010.69,0004.05,0001.99
2024-03-23 05:16:00,SystemResetWarning,0826.9,5.00,000.00,024.4,023.6,000.0,033.0,026.3,10.6,0000.0,0010.55,0003.99,0001.98
2024-03-23 05:17:00,SystemResetWarning,0826.9,5.01,000.00,024.4,023.6,000.0,033.0,026.3,10.6,0000.0,0010.59,0003.96,0001.98
2024-03-23 05:18:00,SystemResetWarning,0826.9,5.00,000.00,024.4,023.6,000.0,033.0,026.3,10.7,0000.0,0010.72,0003.96,0001.97
2024-03-23 05:19:00,SystemResetWarning,0826.9,4.99,000.00,024.4,023.5,000.0,033.0,026.3,10.7,0000.0,0010.54,0003.87,0001.96
2024-03-23 05:20:00,SystemResetWarning,0826.9,4.99,000.00,024.4,023.5,000.0,033.0,026.3,10.7,0000.0,0010.03,0003.85,0001.97
2024-03-23 05:21:00,SystemResetWarning,0826.8,5.00,000.00,024.4,023.5,000.0,033.0,026.3,10.7,0000.0,0009.56,0003.75,0001.98
2024-03-23 05:22:00,SystemResetWarning,0826.8,5.00,000.00,024.4,023.5,000.0,033.0,026.3,10.7,0000.0,0009.52,0003.76,0001.99
2024-03-23 05:23:00,SystemResetWarning,0826.8,5.01,000.00,024.4,023.5,000.0,033.0,026.3,10.6,0000.0,0009.53,0003.79,0001.98
2024-03-23 05:24:00,SystemResetWarning,0826.8,5.01,000.00,024.4,023.5,000.0,033.0,026.2,10.7,0000.0,0009.31,0003.79,0001.98
2024-03-23 05:25:00,SystemResetWarning,0826.8,4.99,000.00,024.4,023.6,000.0,033.0,026.2,10.7,0000.0,0009.49,0003.80,0001.99
2024-03-23 05:26:00,SystemResetWarning,0826.8,4.99,000.00,024.3,023.6,000.0,033.0,026.2,10.7,0000.0,0009.22,0003.81,0002.00
2024-03-23 05:27:00,SystemResetWarning,0826.8,5.00,000.00,024.3,023.6,000.0,033.0,026.2,10.5,0000.0,0009.31,0003.88,0002.01
2024-03-23 05:28:00,SystemResetWarning,0826.8,5.01,000.00,024.3,023.6,000.0,033.0,026.2,10.4,0000.0,0009.87,0003.88,0002.01
2024-03-23 05:29:00,SystemResetWarning,0826.7,5.01,000.00,024.3,023.6,000.0,033.0,026.2,10.4,0000.0,0010.22,0003.89,0002.00
2024-03-23 05:30:00,SystemResetWarning,0826.8,5.01,000.00,024.3,023.5,000.0,032.9,026.2,10.7,0000.0,0010.34,0003.93,0001.98
2024-03-23 05:31:00,SystemResetWarning,0826.7,5.00,000.00,024.3,023.5,000.0,032.9,026.2,10.8,0000.0,0010.28,0003.91,0001.95
2024-03-23 05:32:00,SystemResetWarning,0826.7,5.00,000.00,024.3,023.5,000.0,032.9,026.2,10.5,0000.0,0010.35,0003.94,0001.93
2024-03-23 05:33:00,SystemResetWarning,0826.6,5.00,000.00,024.3,023.5,000.0,032.9,026.2,10.9,0000.0,0010.52,0003.94,0001.93
2024-03-23 05:34:00,SystemResetWarning,0826.6,5.00,000.00,024.3,023.5,000.0,032.9,026.2,11.1,0000.0,0010.67,0003.97,0001.94
2024-03-23 05:35:00,SystemResetWarning,0826.7,4.99,000.00,024.3,023.5,000.0,032.9,026.2,10.7,0000.0,0010.63,0003.97,0001.94
2024-03-23 05:36:00,SystemResetWarning,0826.8,5.00,000.00,024.3,023.5,000.0,032.9,026.2,12.4,0000.0,0010.53,0003.99,0001.94
2024-03-23 05:37:00,SystemResetWarning,0826.7,5.00,000.00,024.3,023.5,000.0,032.9,026.2,12.6,0000.0,0011.03,0004.02,0001.95
2024-03-23 05:38:00,SystemResetWarning,0826.6,5.02,000.00,024.3,023.5,000.0,032.9,026.2,12.0,0000.0,0011.30,0003.99,0001.94
2024-03-23 05:39:00,SystemResetWarning,0826.6,4.99,000.00,024.3,023.5,000.0,032.9,026.2,11.7,0000.0,0010.78,0004.01,0001.95
2024-03-23 05:40:00,SystemResetWarning,0826.7,4.99,000.00,024.3,023.5,000.0,032.9,026.2,11.7,0000.0,0010.47,0003.99,0001.98
2024-03-23 05:41:00,SystemResetWarning,0826.6,5.00,000.00,024.3,023.5,000.0,032.9,026.2,12.6,0000.0,0010.46,0004.01,0002.00
2024-03-23 05:42:00,SystemResetWarning,0826.6,5.01,000.00,024.3,023.5,000.0,032.9,026.2,12.6,0000.0,0010.79,0004.02,0002.02
2024-03-23 05:43:00,SystemResetWarning,0826.6,5.00,000.00,024.3,023.5,000.0,032.9,026.2,12.6,0000.0,0011.21,0004.06,0002.02
2024-03-23 05:44:00,SystemResetWarning,0826.7,5.00,000.00,024.3,023.5,000.0,032.9,026.2,12.7,0000.0,0011.64,0004.11,0002.04
2024-03-23 05:45:00,SystemResetWarning,0826.7,5.00,000.00,024.3,023.5,000.0,032.9,026.2,12.8,0000.0,0012.13,0004.11,0002.05
2024-03-23 05:46:00,SystemResetWarning,0826.7,5.00,000.00,024.3,023.5,000.0,032.9,026.2,12.7,0000.0,0013.15,0004.12,0002.06
2024-03-23 05:47:00,SystemResetWarning,0826.8,5.00,000.00,024.3,023.5,000.0,032.9,026.2,12.7,0000.0,0013.40,0004.17,0002.06
2024-03-23 05:48:00,SystemResetWarning,0826.8,5.00,000.00,024.3,023.5,000.0,032.9,026.2,12.6,0000.0,0013.25,0004.14,0002.07
2024-03-23 05:49:00,SystemResetWarning,0826.8,5.00,000.00,024.3,023.5,000.0,032.9,026.2,12.5,0000.0,0013.87,0004.16,0002.09
2024-03-23 05:50:00,SystemResetWarning,0826.8,4.99,000.00,024.3,023.5,000.0,032.9,026.2,12.4,0000.0,0013.83,0004.18,0002.12
2024-03-23 05:51:00,SystemResetWarning,0826.8,4.99,000.00,024.3,023.5,000.0,032.9,026.2,12.5,0000.0,0014.16,0004.23,0002.12
2024-03-23 05:52:00,SystemResetWarning,0826.8,5.00,000.00,024.3,023.5,000.0,032.9,026.2,12.6,0000.0,0014.55,0004.32,0002.14
2024-03-23 05:53:00,SystemResetWarning,0826.8,5.01,000.00,024.3,023.5,000.0,032.9,026.2,12.6,0000.0,0014.89,0004.37,0002.18
2024-03-23 05:54:00,SystemResetWarning,0826.8,4.99,000.00,024.3,023.5,000.0,032.9,026.2,12.6,0000.0,0014.89,0004.35,0002.22
2024-03-23 05:55:00,SystemResetWarning,0826.8,4.98,000.00,024.3,023.5,000.0,032.9,026.2,12.7,0000.0,0014.67,0004.29,0002.22
2024-03-23 05:56:00,SystemResetWarning,0826.8,5.00,000.00,024.3,023.5,000.0,032.9,026.2,12.9,0000.0,0014.34,0004.28,0002.28
2024-03-23 05:57:00,SystemResetWarning,0826.8,5.01,000.00,024.3,023.5,000.0,032.9,026.2,13.0,0000.0,0013.93,0004.29,0002.35
2024-03-23 05:58:00,SystemResetWarning,0826.8,5.01,000.00,024.3,023.5,000.0,032.9,026.2,13.1,0000.0,0013.84,0004.27,0002.42
2024-03-23 05:59:00,SystemResetWarning,0826.8,4.99,000.00,024.3,023.5,000.0,032.9,026.2,13.3,0000.0,0013.79,0004.30,0002.51
